IRIDIUM 126

Last updated on Tue Sep 22 2026 00:03:21 GMT+0000 (Coordinated Universal Time)

1 42809U 17039G 26264.49896988 .00000034 00000+0 52216-5 0 9991 2 42809 86.3970 313.4070 0002333 92.5133 267.6330 14.34217553483759
UTC large
Height (km)
Speed (km/s)
/
Latitude / Longitude
Inclination (degrees)
Orbital Period (minutes)
Azimuth
Elevation
Range (km)
Doppler Factor

Next 0 passes for location: London (51.5072 / 0.1276)

No passes found over London.
IRIDIUM 126